[[{"header":{"parameterUnit":"m.s-1","parameterCategory":1,"la1":30.2991,"la2":30.254,"lo1":-89.0895,"lo2":-89.0444,"dy":0.0017,"dx":0.0017,"nx":28,"ny":28,"refTime":"2025-03-16T03:00:00:Z","depth":0,"parameterNumber":2,"parameterNumberName":"U-component_of_WINDS"},"data":[0,0,0,0,0,0,0,0,0,0,0,0,0,0,0,0,0,0,0,0,0,0,0,0,0,0,0,0,0,0,0,0,0,0,0,0,0,0,0,0,0,0,0,0,0,0,0,0,0,0,0,0,0,0,0,0,0,0,4.2892,4.2894,0,4.3027,4.3028,4.303,4.2977,4.2974,4.2971,4.2968,4.3111,4.3118,4.3124,0,0,0,0,0,0,0,0,0,0,0,0,0,4.2594,4.26,4.2892,4.2894,4.2895,4.3027,4.3028,4.303,4.2977,4.2974,4.297,4.2966,4.3109,4.3117,4.3125,0,0,0,0,0,0,0,0,0,0,0,0,0,4.2726,4.2602,4.2892,4.2885,4.2885,4.3026,4.3029,4.3031,4.2978,4.2973,4.2969,4.2964,4.3106,4.3116,4.3126,4.3283,0,0,4.3157,4.3161,0,0,0,0,0,0,0,0,4.2719,4.2737,4.2884,4.2885,4.2886,4.298,4.2976,4.3116,4.2979,4.2943,4.2967,4.2962,4.3072,4.3084,4.312,4.329,4.3296,4.3158,4.3164,4.3168,4.3171,0,0,0,0,0,0,0,4.271,4.2731,4.2945,4.2886,4.2888,4.2877,4.289,4.3002,4.3033,4.2946,4.2942,4.2959,4.3071,4.3111,4.3123,4.3298,4.3158,4.3167,4.3173,4.3177,4.3606,4.3611,0,0,0,0,0,0,4.2699,4.2724,4.2941,4.2949,4.2789,4.2886,4.2901,4.2955,4.3031,4.3038,4.2963,4.2956,4.3096,4.3111,4.3128,4.3318,4.3168,4.3178,4.3184,4.3601,4.3607,4.3613,0,0,0,0,0,0,4.2693,4.2719,4.2936,4.2836,4.2862,4.2896,4.2957,4.296,4.2999,4.3044,4.3049,4.2997,4.3092,4.3114,4.3245,4.3322,4.3182,4.3192,4.3594,4.3603,4.361,4.3699,0,0,0,0,0,0,4.2685,4.2717,4.2776,4.2837,4.2868,4.3049,4.2962,4.2966,4.3016,4.3008,4.3077,4.3084,4.309,4.323,4.3255,4.3334,4.32,4.3588,4.3598,4.3607,4.3689,4.3709,4.3726,0,0,0,0,0,4.2674,4.2797,4.2779,4.2806,4.2942,4.3054,4.3071,4.3074,4.3022,4.3083,4.3112,4.3082,4.331,4.3244,4.3272,4.3355,4.3583,4.3595,4.3607,4.3681,4.3705,4.3726,0,0,0,0,0,0,4.2745,4.2805,4.2786,4.2931,4.2988,4.3044,4.312,4.31,4.3173,4.3163,4.3166,4.3182,4.3318,4.3349,4.3275,4.3512,4.3439,4.3457,4.3486,4.3509,4.3527,4.3517,4.3208,0,0,0,0,0,4.2777,4.2862,4.291,4.3033,4.3062,4.3087,4.3136,4.3133,4.3192,4.3216,4.3255,4.3315,4.34,4.3456,4.3537,4.3694,4.3709,4.3765,4.3783,4.3798,4.3813,4.39,4.3925,4.3652,4.3652,4.3652,0,0,4.2846,4.2888,4.2942,4.3049,4.3092,4.3181,4.3107,4.3204,4.3271,4.3232,4.3358,4.3388,4.3456,4.3601,4.3667,4.3631,4.3892,4.3813,4.3824,4.3832,4.3915,4.3941,4.3964,4.366,4.3659,4.3658,0,0,4.3015,4.3055,4.3163,4.3208,4.3274,4.3289,4.3315,4.3376,4.3394,4.352,4.3493,4.3573,4.372,4.3769,4.3814,4.4003,4.3979,4.4029,4.4125,4.4209,4.4231,4.425,4.4318,4.4343,4.4045,4.4045,4.4045,0,4.3092,4.3222,4.3222,4.3321,4.337,4.3337,4.3447,4.3492,4.3582,4.3617,4.3576,4.3759,4.3802,4.3959,4.4005,4.4042,4.4073,4.4022,4.4227,4.4247,4.4265,4.433,4.4356,4.4051,4.405,4.405,4.4049,0,4.3314,4.3406,4.3485,4.3571,4.3629,4.3733,4.375,4.3809,4.3802,4.3823,4.3953,4.4003,4.4094,4.4131,4.4126,4.4288,4.4264,4.4225,4.4152,4.4296,4.4358,4.4383,4.4059,4.4057,4.4055,4.4054,0,0,4.3531,4.3616,4.3645,4.3684,4.3755,4.3827,4.3931,4.4018,4.4069,4.4133,4.4221,4.4346,4.4311,4.4361,4.4362,4.4435,4.4584,4.4388,4.439,4.4423,4.4767,4.4795,4.4824,4.4568,4.4573,4.4576,4.4761,0,4.3707,4.3887,4.3889,4.4056,4.4141,4.4112,4.4203,4.4258,4.428,4.4357,4.4382,4.4471,4.4418,4.4448,4.452,4.455,4.4653,4.4537,4.4652,4.4656,4.4636,4.4856,4.4887,4.5059,4.4785,4.4789,4.4792,0,4.3935,4.4004,4.4179,4.4238,4.4274,4.4355,4.4436,4.451,4.4572,4.4583,4.464,4.4629,4.4737,4.4661,4.4811,4.4732,4.4779,4.4802,4.4808,4.482,4.4733,4.4874,4.5113,4.5139,4.483,4.4827,4.4824,0,4.4077,4.4214,4.4336,4.4371,4.4443,4.4501,4.4534,4.4591,4.4644,4.4715,4.475,4.4834,4.488,4.4946,4.4959,4.4902,4.511,4.5034,4.5124,4.5124,4.5169,4.5166,4.542,4.5199,4.5199,4.5198,4.5198,0,4.4272,4.4381,4.4401,4.4476,4.4597,4.4601,4.4721,4.475,4.4801,4.4883,4.4864,4.4941,4.4953,4.5035,4.5046,4.5169,4.519,4.5204,4.5205,4.5206,4.5204,4.5237,4.5226,4.5205,4.5204,4.5202,4.5201,0,4.4451,4.4469,4.4601,4.4658,4.4675,4.4762,4.4812,4.4885,4.4905,4.5009,4.5034,4.5067,4.5162,4.5181,4.5294,4.5301,4.5448,4.5438,4.5427,4.5426,4.5515,4.5506,4.5799,4.5838,4.5591,4.5594,4.5596,0,4.4575,4.4657,4.4723,4.4776,4.4812,4.4897,4.495,4.4957,4.5014,4.5092,4.5156,4.5248,4.5322,4.5475,4.5511,4.5597,4.5589,4.5686,4.5602,4.56,4.5592,4.5587,4.5595,4.5702,4.5705,4.5707,4.5708,0,4.4793,4.4798,4.4874,4.4955,4.5019,4.5083,4.5144,4.5189,4.5205,4.527,4.5366,4.5423,4.5538,4.563,4.5717,4.5753,4.5735,4.5735,4.576,4.5761,4.5752,4.5759,4.5471,4.5728,4.5726,4.5724,4.5723,4.5723,4.4949,4.5021,4.5078,4.5165,4.5212,4.5269,4.5341,4.537,4.5449,4.5542,4.5542,4.5647,4.5709,4.5823,4.5864,4.5948,4.5918,4.5955,4.5964,4.5973,4.5982,4.5738,4.5964,4.5963,4.5963,4.5962,4.5962,0,4.5166,4.5202,4.5281,4.5367,4.5436,4.541,4.5477,4.5536,4.5629,4.5687,4.576,4.5871,4.5961,4.6003,4.6092,4.6151,4.6145,4.6175,4.6171,4.618,4.6003,4.5972,4.6178,4.6178,4.6178,4.6178,4.6178,4.6178,4.5287,4.5408,4.542,4.5565,4.56,4.5702,4.5742,4.5796,4.5842,4.5966,4.604,4.6067,4.6119,4.6212,4.6294,4.6305,4.6339,4.6373,4.6379,4.6214,4.6192,4.6171,4.6142,4.638,4.638,4.6548,4.655,4.6551]},{"header":{"parameterUnit":"m.s-1","parameterCategory":1,"la1":30.2991,"la2":30.254,"lo1":-89.0895,"lo2":-89.0444,"dy":0.0017,"dx":0.0017,"nx":28,"ny":28,"refTime":"2025-03-16T03:00:00:Z","depth":0,"parameterNumber":3,"parameterNumberName":"V-component_of_WINDS"},"data":[0,0,0,0,0,0,0,0,0,0,0,0,0,0,0,0,0,0,0,0,0,0,0,0,0,0,0,0,0,0,0,0,0,0,0,0,0,0,0,0,0,0,0,0,0,0,0,0,0,0,0,0,0,0,0,0,0,0,0.6033,0.6032,0,0.6012,0.6012,0.6011,0.5984,0.5983,0.5983,0.5982,0.5961,0.596,0.596,0,0,0,0,0,0,0,0,0,0,0,0,0,0.6047,0.6047,0.6033,0.6032,0.6032,0.6012,0.6012,0.6011,0.5984,0.5983,0.5983,0.5982,0.5961,0.5961,0.596,0,0,0,0,0,0,0,0,0,0,0,0,0,0.6035,0.6047,0.6033,0.6016,0.6014,0.6012,0.6012,0.6011,0.5984,0.5983,0.5983,0.5982,0.5961,0.5961,0.596,0.5972,0,0,0.596,0.5959,0,0,0,0,0,0,0,0,0.6036,0.6035,0.6019,0.6017,0.6015,0.6,0.6009,0.5998,0.5984,0.5995,0.5982,0.5982,0.5974,0.5973,0.597,0.5971,0.5971,0.596,0.5959,0.5959,0.5959,0,0,0,0,0,0,0,0.6037,0.6035,0.6024,0.6019,0.6016,0.6009,0.6007,0.6007,0.5989,0.5994,0.5992,0.599,0.5973,0.5971,0.597,0.597,0.596,0.5959,0.5959,0.5959,0.5979,0.598,0,0,0,0,0,0,0.604,0.6036,0.6025,0.6024,0.6024,0.6009,0.6007,0.6005,0.5989,0.5986,0.5991,0.5989,0.5971,0.597,0.5969,0.5981,0.5959,0.5959,0.5959,0.5978,0.5979,0.598,0,0,0,0,0,0,0.6041,0.604,0.6026,0.6029,0.6027,0.601,0.6009,0.6005,0.6003,0.5986,0.5983,0.5992,0.5971,0.5969,0.5972,0.598,0.5959,0.5959,0.5978,0.5979,0.5979,0.6007,0,0,0,0,0,0,0.6041,0.604,0.6045,0.603,0.6027,0.603,0.6009,0.6005,0.6003,0.6,0.5986,0.5983,0.597,0.5972,0.5971,0.598,0.5959,0.5977,0.5978,0.5979,0.6006,0.6009,0.6012,0,0,0,0,0,0.6042,0.6053,0.6045,0.6044,0.6033,0.603,0.6029,0.6014,0.6003,0.6008,0.5997,0.5984,0.5979,0.5973,0.5971,0.598,0.5976,0.5978,0.5979,0.6004,0.6008,0.6012,0,0,0,0,0,0,0.607,0.6051,0.6042,0.6049,0.6041,0.6026,0.6031,0.6019,0.6014,0.6012,0.5993,0.599,0.5995,0.5987,0.598,0.599,0.5976,0.5977,0.5995,0.5999,0.6002,0.6004,0.5958,0,0,0,0,0,0.6077,0.6077,0.606,0.6068,0.6065,0.6048,0.6047,0.6036,0.6027,0.6024,0.6013,0.6005,0.6001,0.6,0.5996,0.6004,0.6,0.6009,0.6012,0.6015,0.6017,0.602,0.6023,0.5985,0.5985,0.5985,0,0,0.6092,0.6081,0.6082,0.6073,0.6066,0.6066,0.6046,0.6047,0.6046,0.6024,0.6025,0.6017,0.6006,0.6012,0.6013,0.6006,0.6026,0.6017,0.602,0.6019,0.6022,0.6025,0.6029,0.5986,0.5986,0.5985,0,0,0.6118,0.611,0.6116,0.6109,0.6098,0.6087,0.6088,0.6074,0.6068,0.6069,0.6052,0.605,0.6045,0.6038,0.6034,0.6057,0.6044,0.6056,0.6073,0.6077,0.608,0.6082,0.609,0.6093,0.6057,0.6057,0.6057,0,0.6138,0.6137,0.612,0.6122,0.6118,0.6097,0.6102,0.6096,0.6085,0.6083,0.6074,0.6067,0.6058,0.6061,0.6066,0.6064,0.6064,0.6058,0.6081,0.6083,0.6085,0.6092,0.6095,0.6059,0.6059,0.6058,0.6058,0,0.6161,0.6161,0.6166,0.6156,0.6152,0.6156,0.6139,0.6138,0.6127,0.6116,0.6117,0.6106,0.6099,0.6099,0.6088,0.61,0.6096,0.6084,0.6069,0.6091,0.6097,0.6099,0.6061,0.606,0.606,0.606,0,0,0.6206,0.6185,0.6188,0.6182,0.6168,0.6167,0.6169,0.6162,0.6161,0.6154,0.6155,0.615,0.6139,0.6134,0.6122,0.6125,0.6143,0.6113,0.6112,0.6119,0.6154,0.6163,0.6167,0.6134,0.6134,0.6135,0.6155,0,0.623,0.6232,0.6217,0.6223,0.6222,0.6202,0.6204,0.6195,0.6185,0.6182,0.6171,0.6168,0.6154,0.615,0.6152,0.614,0.615,0.6138,0.6134,0.6134,0.6138,0.617,0.618,0.62,0.6157,0.6158,0.6158,0,0.6258,0.6252,0.6259,0.6244,0.6243,0.6244,0.6236,0.6234,0.6223,0.6216,0.621,0.6196,0.6196,0.6181,0.618,0.6173,0.617,0.6164,0.6164,0.6163,0.6148,0.617,0.6206,0.6209,0.6162,0.6162,0.6161,0,0.629,0.6283,0.6286,0.6282,0.6265,0.6266,0.6259,0.6247,0.6244,0.6237,0.6234,0.6227,0.6223,0.6217,0.6201,0.6192,0.6202,0.6187,0.6195,0.6196,0.6199,0.6199,0.6235,0.6197,0.6197,0.6197,0.6197,0,0.6319,0.6323,0.63,0.6302,0.6306,0.6288,0.6293,0.6283,0.6273,0.6272,0.6253,0.6253,0.6232,0.6228,0.6216,0.6217,0.6215,0.6208,0.6205,0.621,0.6211,0.6208,0.6207,0.6198,0.6197,0.6197,0.6197,0,0.6355,0.634,0.6342,0.6325,0.632,0.6324,0.6309,0.631,0.6298,0.6297,0.6296,0.6278,0.6273,0.6256,0.6247,0.6238,0.6243,0.6236,0.6247,0.6245,0.6254,0.6254,0.629,0.6293,0.6253,0.6254,0.6254,0,0.6375,0.6378,0.6361,0.6359,0.6353,0.635,0.6346,0.6328,0.6325,0.6312,0.6314,0.6307,0.6301,0.6294,0.6279,0.6272,0.6265,0.6278,0.6264,0.6269,0.6265,0.6265,0.6265,0.6281,0.6282,0.6282,0.6283,0,0.6411,0.6403,0.6398,0.6391,0.6387,0.638,0.6373,0.6372,0.6351,0.6348,0.6343,0.6338,0.6329,0.6322,0.6312,0.6304,0.629,0.6287,0.6289,0.6294,0.63,0.6297,0.6255,0.6287,0.6286,0.6286,0.6286,0.6286,0.6439,0.6441,0.6429,0.6424,0.6416,0.6409,0.6409,0.6397,0.6392,0.6383,0.6372,0.6368,0.6356,0.6341,0.6334,0.6329,0.6322,0.6324,0.6325,0.6326,0.6328,0.6301,0.6328,0.6327,0.6327,0.6327,0.6327,0,0.6474,0.6465,0.6461,0.6451,0.6447,0.6434,0.6424,0.6422,0.6418,0.6408,0.6403,0.6396,0.6389,0.6374,0.6365,0.6365,0.6358,0.6363,0.6363,0.6361,0.6336,0.6335,0.6369,0.6369,0.6369,0.6369,0.6369,0.6369,0.6492,0.6494,0.6484,0.6481,0.6472,0.6468,0.6464,0.6457,0.6449,0.6442,0.6437,0.6426,0.6414,0.6404,0.6397,0.6392,0.639,0.6397,0.6391,0.6367,0.6363,0.636,0.6359,0.6397,0.6397,0.6417,0.6417,0.6417]}]]